Regional Weather Roundup
Issued by NWS

Home | Current Version | Previous Version | Text Only | Print | Product List | Glossary On
Versions: 1 2 3 4 5 6 7 8 9 10 11 12 13 14 15 16 17 18 19 20 21 22 23 24 25 26 27 28 29 30 31 32 33 34 35 36 37 38 39 40 41 42 43 44 45 46 47 48 49 50
000
ASUS46 KPQR 180810
RWROR

OREGON REGIONAL WEATHER ROUNDUP
NATIONAL WEATHER SERVICE PORTLAND OR
100 AM PDT THU SEP 18 2014

NOTE: "FAIR" INDICATES FEW OR NO CLOUDS BELOW 12,000 FEET WITH
NO SIGNIFICANT WEATHER AND/OR OBSTRUCTIONS TO VISIBILITY.

ORZ001>013-180900-
NORTHWEST OREGON


CITY           SKY/WX    TMP DP  RH WIND       PRES   REMARKS
ASTORIA        CLOUDY    58  57  97 SW5       29.74F
NEWPORT        CLOUDY    57  55  94 E5        29.80S
PORTLAND       CLOUDY    66  58  75 CALM      29.74S
VANCOUVER WA   CLOUDY    66  56  70 CALM      29.73F
SCAPPOOSE      CLOUDY    63  58  83 CALM      29.73S
HILLSBORO      CLOUDY    62  58  86 CALM      29.74S
AURORA         CLOUDY    63  56  78 CALM      29.74F
MCMINNVILLE    LGT RAIN  60  56  86 CALM      29.75S
SALEM          CLOUDY    62  56  80 S5        29.74R
CORVALLIS      CLOUDY    61  55  82 NW7       29.75F
EUGENE         CLOUDY    60  55  83 E3        29.74F
$$

ORZ021-028-180900-
SOUTHWEST OREGON


CITY           SKY/WX    TMP DP  RH WIND       PRES   REMARKS
NORTH BEND     CLOUDY    57  57 100 CALM      29.75F
BROOKINGS      CLOUDY    59  59 100 CALM      29.74S
ROSEBURG       MOCLDY    60  53  77 CALM      29.76R
SEXTON SUMMIT  MOCLDY    55  47  74 E3        29.81S
MEDFORD        CLOUDY    65  54  67 N3        29.73S
$$

ORZ009-041-180900-
COLUMBIA GORGE


CITY           SKY/WX    TMP DP  RH WIND       PRES   REMARKS
TROUTDALE      CLOUDY    66  57  72 CALM      29.72S
THE DALLES     CLOUDY    71  53  52 W14       29.67S
$$

ORZ029>031-042>050-061>064-180900-
EASTERN OREGON


CITY           SKY/WX    TMP DP  RH WIND       PRES   REMARKS
REDMOND        CLOUDY    62  37  39 E3        29.79R
BEND           CLOUDY    61  41  48 CALM      29.82R
KLAMATH FALLS  MOCLDY    53  39  59 CALM      29.86R
LAKEVIEW       CLEAR     54  36  50 E5        29.90R
HERMISTON      MOCLDY    67  45  45 S7        29.63R
PENDLETON      PTCLDY    63  40  42 S7        29.66R
JOHN DAY       CLOUDY    70  31  23 W3        29.77S
MEACHAM        CLOUDY    48  36  63 CALM      29.79R
LA GRANDE      MOCLDY    61  34  36 SE10      29.74R
BAKER CITY     LGT RAIN  59  41  51 VRB3      29.77R
BURNS          CLOUDY    62  39  42 S7        29.84R
ROME             N/A     70  34  26 S8        29.81R
ONTARIO        CLOUDY    69  47  45 VRB6      29.69R
$$


USA.gov is the U.S. government's official web portal to all federal, state and local government web resources and services.